Hourly Weather Rudnya-Horodets'ka

Today, 15 April, Thursday

Time Temperature Precipitation Wind Pressure Humidity
00:00 +9°C° 0 mm 1 mps 745 mmHg 80%
01:00 +9°C° 0 mm 1 mps 745 mmHg 82%
02:00 +7°C° 0 mm 2 mps 745 mmHg 86%
03:00 +7°C° 0 mm 2 mps 744 mmHg 88%
04:00 +6°C° 0 mm 2 mps 744 mmHg 90%
05:00 +6°C° 0 mm 2 mps 744 mmHg 93%
06:00 +7°C° 0 mm 2 mps 744 mmHg 89%
07:00 +8°C° 0 mm 2 mps 744 mmHg 85%
08:00 +10°C° 0 mm 2 mps 744 mmHg 82%
09:00 +10°C° 0.4 mm 2 mps 744 mmHg 79%
10:00 +11°C° 0.4 mm 3 mps 744 mmHg 76%
11:00 +11°C° 0.4 mm 3 mps 744 mmHg 73%
12:00 +10°C° 0.5 mm 3 mps 744 mmHg 78%
13:00 +10°C° 0.5 mm 3 mps 744 mmHg 83%
14:00 +9°C° 0.5 mm 3 mps 744 mmHg 88%
15:00 +9°C° 0.7 mm 3 mps 744 mmHg 90%
16:00 +8°C° 0.7 mm 3 mps 744 mmHg 91%
17:00 +7°C° 0.7 mm 4 mps 743 mmHg 93%
18:00 +7°C° 1.4 mm 4 mps 743 mmHg 94%
19:00 +6°C° 1.4 mm 4 mps 743 mmHg 94%
20:00 +6°C° 1.4 mm 4 mps 743 mmHg 95%
21:00 +6°C° 1.3 mm 4 mps 743 mmHg 95%
22:00 +6°C° 1.3 mm 4 mps 743 mmHg 95%
23:00 +5°C° 1.3 mm 4 mps 742 mmHg 96%

Tomorrow, 16 April, Friday

Time Temperature Precipitation Wind Pressure Humidity
00:00 +5°C° 0.4 mm 4 mps 742 mmHg 95%
01:00 +5°C° 0.4 mm 4 mps 742 mmHg 95%
02:00 +5°C° 0.4 mm 4 mps 742 mmHg 95%
03:00 +4°C° 0.2 mm 4 mps 742 mmHg 95%
04:00 +4°C° 0.2 mm 4 mps 742 mmHg 95%
05:00 +4°C° 0.2 mm 4 mps 742 mmHg 95%
06:00 +4°C° 0.2 mm 4 mps 742 mmHg 94%
07:00 +4°C° 0.2 mm 4 mps 742 mmHg 94%
08:00 +3°C° 0.2 mm 4 mps 743 mmHg 94%
09:00 +3°C° 0.2 mm 4 mps 743 mmHg 94%
10:00 +3°C° 0.2 mm 4 mps 743 mmHg 95%
11:00 +3°C° 0.2 mm 4 mps 744 mmHg 95%
12:00 +3°C° 0.4 mm 4 mps 744 mmHg 95%
13:00 +1°C° 0.4 mm 4 mps 744 mmHg 96%
14:00 +2°C° 0.4 mm 3 mps 745 mmHg 96%
15:00 +2°C° 0.2 mm 3 mps 745 mmHg 96%
16:00 +2°C° 0.2 mm 3 mps 745 mmHg 96%
17:00 +3°C° 0.2 mm 3 mps 746 mmHg 96%
18:00 +2°C° 0 mm 3 mps 746 mmHg 96%
19:00 +2°C° 0 mm 3 mps 746 mmHg 95%
20:00 +2°C° 0 mm 3 mps 747 mmHg 94%
21:00 +2°C° 0 mm 3 mps 747 mmHg 94%
22:00 +2°C° 0 mm 3 mps 747 mmHg 93%
23:00 +3°C° 0 mm 2 mps 747 mmHg 92%

Day after tomorrow, 17 April, Saturday

Time Temperature Precipitation Wind Pressure Humidity
00:00 +3°C° 0 mm 2 mps 747 mmHg 92%
01:00 +3°C° 0 mm 2 mps 747 mmHg 93%
02:00 +3°C° 0 mm 2 mps 748 mmHg 93%
03:00 +3°C° 0 mm 2 mps 748 mmHg 94%
04:00 +3°C° 0 mm 2 mps 748 mmHg 95%
05:00 +4°C° 0 mm 1 mps 748 mmHg 96%
06:00 +4°C° 0 mm 1 mps 748 mmHg 96%
07:00 +4°C° 0 mm 1 mps 749 mmHg 96%
08:00 +4°C° 0 mm 1 mps 749 mmHg 96%
09:00 +4°C° 0 mm 1 mps 749 mmHg 94%
10:00 +5°C° 0 mm 1 mps 749 mmHg 93%
11:00 +5°C° 0 mm 1 mps 750 mmHg 91%
12:00 +6°C° 0 mm 1 mps 750 mmHg 88%
13:00 +6°C° 0 mm 1 mps 750 mmHg 85%
14:00 +7°C° 0 mm 1 mps 750 mmHg 82%
15:00 +7°C° 0 mm 1 mps 750 mmHg 81%
16:00 +7°C° 0 mm 1 mps 750 mmHg 80%
17:00 +7°C° 0 mm 1 mps 750 mmHg 79%
18:00 +7°C° 0 mm 1 mps 750 mmHg 82%
19:00 +6°C° 0 mm 1 mps 750 mmHg 85%
20:00 +6°C° 0 mm 1 mps 750 mmHg 88%
21:00 +5°C° 0 mm 2 mps 750 mmHg 87%
22:00 +5°C° 0 mm 2 mps 750 mmHg 86%
23:00 +5°C° 0 mm 2 mps 750 mmHg 85%

18 April, Sunday

Time Temperature Precipitation Wind Pressure Humidity
00:00 +5°C° 0 mm 2 mps 750 mmHg 86%
01:00 +4°C° 0 mm 2 mps 750 mmHg 87%
02:00 +4°C° 0 mm 2 mps 750 mmHg 88%
03:00 +3°C° 0 mm 2 mps 750 mmHg 88%
04:00 +4°C° 0 mm 1 mps 750 mmHg 89%
05:00 +4°C° 0 mm 1 mps 749 mmHg 90%
06:00 +5°C° 0 mm 1 mps 749 mmHg 84%
07:00 +6°C° 0 mm 1 mps 750 mmHg 79%
08:00 +8°C° 0 mm 1 mps 750 mmHg 74%
09:00 +9°C° 0 mm 1 mps 750 mmHg 69%
10:00 +11°C° 0 mm 1 mps 750 mmHg 64%
11:00 +12°C° 0 mm 1 mps 750 mmHg 59%
12:00 +13°C° 0 mm 1 mps 750 mmHg 56%
13:00 +14°C° 0 mm 1 mps 749 mmHg 53%
14:00 +14°C° 0 mm 0 mps 749 mmHg 50%
15:00 +14°C° 0 mm 1 mps 749 mmHg 53%
16:00 +14°C° 0 mm 2 mps 749 mmHg 56%
17:00 +13°C° 0 mm 2 mps 749 mmHg 59%
18:00 +11°C° 0 mm 3 mps 749 mmHg 66%
19:00 +10°C° 0 mm 3 mps 750 mmHg 72%
20:00 +9°C° 0 mm 3 mps 750 mmHg 78%
21:00 +9°C° 0 mm 2 mps 750 mmHg 80%
22:00 +9°C° 0 mm 2 mps 750 mmHg 82%
23:00 +9°C° 0 mm 2 mps 750 mmHg 84%

19 April, Monday

Time Temperature Precipitation Wind Pressure Humidity
00:00 +8°C° 0 mm 2 mps 750 mmHg 85%
01:00 +8°C° 0 mm 2 mps 750 mmHg 86%
02:00 +8°C° 0 mm 2 mps 749 mmHg 88%
03:00 +8°C° 0 mm 2 mps 749 mmHg 89%
04:00 +8°C° 0 mm 2 mps 749 mmHg 91%
05:00 +7°C° 0 mm 3 mps 749 mmHg 92%
06:00 +8°C° 0.1 mm 3 mps 749 mmHg 92%
07:00 +8°C° 0.1 mm 3 mps 749 mmHg 91%
08:00 +8°C° 0.1 mm 3 mps 749 mmHg 90%
09:00 +8°C° 0.1 mm 4 mps 749 mmHg 85%
10:00 +10°C° 0.1 mm 4 mps 749 mmHg 81%
11:00 +9°C° 0.1 mm 5 mps 749 mmHg 76%
12:00 +10°C° 0.2 mm 5 mps 749 mmHg 72%
13:00 +12°C° 0.2 mm 5 mps 749 mmHg 67%
14:00 +12°C° 0.2 mm 5 mps 748 mmHg 62%
15:00 +12°C° 0 mm 5 mps 748 mmHg 63%
16:00 +11°C° 0 mm 6 mps 748 mmHg 64%
17:00 +10°C° 0 mm 6 mps 748 mmHg 65%
18:00 +10°C° 0 mm 6 mps 747 mmHg 67%
19:00 +9°C° 0 mm 6 mps 747 mmHg 68%
20:00 +8°C° 0 mm 6 mps 746 mmHg 70%
21:00 +8°C° 0 mm 6 mps 746 mmHg 74%
22:00 +7°C° 0 mm 6 mps 746 mmHg 78%
23:00 +7°C° 0 mm 6 mps 746 mmHg 83%

20 April, Tuesday

Time Temperature Precipitation Wind Pressure Humidity
00:00 +5°C° 0 mm 6 mps 745 mmHg 84%
01:00 +5°C° 0 mm 7 mps 745 mmHg 86%
02:00 +5°C° 0 mm 7 mps 744 mmHg 88%
03:00 +5°C° 0 mm 8 mps 744 mmHg 87%
04:00 +5°C° 0 mm 8 mps 744 mmHg 86%
05:00 +4°C° 0 mm 8 mps 743 mmHg 85%
06:00 +4°C° 0 mm 8 mps 743 mmHg 84%
07:00 +4°C° 0 mm 8 mps 743 mmHg 82%
08:00 +4°C° 0 mm 8 mps 743 mmHg 81%
09:00 +5°C° 0 mm 8 mps 743 mmHg 79%
10:00 +5°C° 0 mm 8 mps 743 mmHg 77%
11:00 +5°C° 0 mm 8 mps 743 mmHg 76%
12:00 +5°C° 0 mm 8 mps 743 mmHg 75%
13:00 +5°C° 0 mm 8 mps 742 mmHg 74%
14:00 +5°C° 0 mm 8 mps 742 mmHg 74%
15:00 +5°C° 0 mm 7 mps 742 mmHg 72%
16:00 +6°C° 0 mm 7 mps 742 mmHg 71%
17:00 +6°C° 0 mm 7 mps 741 mmHg 69%
18:00 +6°C° 0 mm 7 mps 741 mmHg 71%
19:00 +5°C° 0 mm 7 mps 741 mmHg 73%
20:00 +4°C° 0 mm 7 mps 741 mmHg 75%
21:00 +4°C° 0 mm 6 mps 741 mmHg 75%
22:00 +4°C° 0 mm 6 mps 741 mmHg 75%
23:00 +4°C° 0 mm 6 mps 740 mmHg 75%
Show more